www.pogodaiklimat.ru

Погода и климат >> Архив погоды >> Россия >> Ямало-Ненецкий АО >> Гыда


ПОГОДА в Гыде

  • Прогноз погоды в Гыде
  • Монитор погоды в Гыде

АРХИВ ПОГОДЫ в Гыде

Время (UTC), дата Ветер
(напр.,м/с)
 
Видим.   Явления Облачность Т
(С)
Тd
(С)
f
(%)
Тe
(С)
Тes
(С)
Комфортность P
(гПа)
Po
(гПа)
Тmin
(С)
Tmax
(С)
R
(мм)
R24
(мм)
S
(см)
06 9.01 З 2 н/о н/о -35.2 -39.0 68 -44 -44 опасность
обморожения
1003.0 1001.7 -35.0
09 9.01 З 2 н/о н/о -36.4 -40.4 66 -45 -45 опасность
обморожения
1003.7 1002.4
12 9.01 штиль 0 н/о н/о -36.6 -40.6 66 -37 -37 опасность
обморожения
1004.4 1003.1
21 9.01 З 1 н/о н/о -40.0 -44.3 63 -45 -45 опасность
обморожения
1005.2 1003.9
00 10.01 штиль 0 н/о н/о -39.9 -44.2 63 -40 -40 опасность
обморожения
1005.7 1004.4
03 10.01 штиль 0 н/о н/о -40.4 -44.8 62 -40 -40 опасность
обморожения
1006.0 1004.6 -40.6
06 10.01 штиль 0 н/о н/о -39.3 -43.6 63 -39 -39 опасность
обморожения
1006.8 1005.4 -40.6
09 10.01 С 2 н/о н/о -37.9 -42.0 65 -47 -47 опасность
обморожения
1007.6 1006.2
12 10.01 С 1 н/о н/о -39.1 -43.3 64 -44 -44 опасность
обморожения
1008.8 1007.5
18 10.01 З 1 н/о н/о -40.5 -44.9 62 -46 -46 опасность
обморожения
1010.2 1008.9 -37.6
21 10.01 Ю 2 н/о н/о -40.9 -45.4 62 -50 -50 опасность
обморожения
1011.2 1009.9
00 11.01 Ю 2 н/о н/о -41.1 -45.7 61 -50 -50 опасность
обморожения
1012.5 1011.2
03 11.01 Ю 2 н/о н/о -40.7 -45.2 62 -50 -50 опасность
обморожения
1013.5 1012.2 -41.3
06 11.01 Ю 2 н/о н/о -40.6 -45.1 62 -50 -50 опасность
обморожения
1014.4 1013.1 -41.3
09 11.01 Ю 1 н/о н/о -40.4 -44.8 62 -46 -46 опасность
обморожения
1015.6 1014.3
18 11.01 Ю 4 н/о н/о -38.4 -42.5 65 -52 -52 опасность
обморожения
1017.6 1016.2 -36.6
21 11.01 Ю 3 н/о н/о -37.8 -41.9 65 -49 1018.5 1017.3
00 12.01 Ю 5 н/о н/о -38.6 -42.8 64 -53 -53 опасность
обморожения
1016.9 1015.5
03 12.01 Ю 5 н/о н/о -38.0 -42.2 65 -53 -53 опасность
обморожения
1016.5 1015.1 -40.6
09 12.01 Ю 9-15
{15}
н/о н/о -31.7 -35.2 71 -48 -48 опасность
обморожения
1012.6 1011.3
12 12.01 Ю 8-15
{16}
н/о н/о -31.5 -34.9 72 -47 -47 опасность
обморожения
1011.1 1009.8
18 12.01 Ю 9-13
{15}
н/о н/о -25.8 -28.7 77 -41 -41 опасность
обморожения
1007.8 1006.5 -25.9
09 13.01 Ю 11-16
{16}
н/о н/о -16.9 -18.8 85 -30 -30 1000.2 999.0
18 13.01 Ю 7-12
{16}
н/о н/о -18.0 -20.0 84 -29 -29 999.4 998.2 -16.6
00 14.01 Ю 7-10
{12}
н/о н/о -17.4 -19.4 84 -28 -28 999.4 998.2
03 14.01 Ю 5
{12}
н/о н/о -17.0 -18.9 85 -26 -26 999.6 998.4 -18.7
09 14.01 Ю 6
{12}
н/о н/о -17.0 -18.9 85 -27 -27 999.8 998.6
12 14.01 Ю 6
{12}
н/о н/о -15.2 -16.9 87 -25 -25 999.6 998.4
15 14.01 Ю 4 н/о н/о -13.1 -14.7 88 -20 999.8 998.7
18 14.01 Ю 6 н/о н/о -12.3 -13.7 89 -21 998.3 997.3 -12.4
21 14.01 Ю 5 н/о н/о -11.0 -12.4 89 -19 998.3 997.3
00 15.01 Ю 6 н/о н/о -17.5 -19.5 84 -28 -28 997.5 996.3
03 15.01 ЮЗ 5 н/о н/о -17.6 -19.6 84 -27 998.4 997.3 -18.7
06 15.01 Ю 3 н/о н/о -20.7 -23.0 82 -28 999.8 998.7 -20.9
09 15.01 Ю 4 н/о н/о -21.7 -24.1 81 -31 999.8 998.7
12 15.01 Ю 2 н/о н/о -20.6 -22.9 82 -27 998.4 997.3
15 15.01 Ю 2 н/о н/о -22.6 -25.1 80 -29 998.4 997.3
18 15.01 Ю 3 н/о н/о -24.6 -27.3 78 -33 998.4 997.3 -19.4
21 15.01 Ю 2 н/о н/о -23.4 -25.9 80 -30 998.4 997.3
00 16.01 Ю 4 н/о н/о -23.9 -26.5 79 -34 998.4 997.3

 

Местоположение метеостанции Гыда (Ямало-Ненецкий АО, Россия): широта 70.88 долгота 78.47 высота над уровнем моря 8 м.

В архиве по умолчанию представлена погода в Гыде за последнюю неделю. Архивные данные за месяц целиком и за предыдущие месяцы, начиная с января 2011 года, Вы можете получить, выбрав интересующий диапазон дат из раскрывающегося списка и нажав кнопку "Ввод!".


*Определитесь, кто Вы:
робот инопланетянин человек

Внимание! Время в таблицах - всемирное. Для получения местного времени необходимо прибавить поправку, которая равна 5 ч.

Смотрите также архив погоды в соседних городах и на ближайших метеорологических станциях:

Погода в Сопочной Карге (Красноярский край, Россия) (186 км)
Погода в Карауле (Красноярский край, Россия) (196 км)
Погода в Антипаюте (Ямало-Ненецкий АО, Россия) (209 км)
Погода в Сеяхе (Ямало-Ненецкий АО, Россия) (234 км)
Погода в Тамбее (Ямало-Ненецкий АО, Россия) (248 км)
Погода на Острове Диксон (Красноярский край, Россия) (301 км)
Погода в Тазовском (Ямало-Ненецкий АО, Россия) (379 км)
Погода в Потапово (Красноярский край, Россия) (387 км)
Погода на Имени Попова (Ямало-Ненецкий АО, Россия) (396 км)
Погода в Норильске (Красноярский край, Россия) (409 км)

Пояснения к столбцам:

Ветер - указаны скорость ветра в м/с - средняя за 10 мин, порывы в срок и между сроками (в фигурных скобках) и направление, откуда дует ветер: С - северный, СВ - северо-восточный, В - восточный, ЮВ - юго-восточный, Ю - южный, ЮЗ - юго-западный, З - западный, СЗ - северо-западный.
Видимость - горизонтальная дальность видимости в метрах или километрах. При видимости от 1 до 10 км при отсутствии осадков обычно наблюдается дымка, при ухудшении видимости до 1 км и менее - туман. В сухую погоду видимость может ухудшаться дымом, пылью или мглою.
Явления - указаны атмосферные явления, наблюдавшиеся в срок или в последний час перед сроком; фигурными скобками обозначены явления, наблюдавшиеся между сроками (за 1-3 часа до срока); квадратными скобками обозначены град или гололедные отложения с указанием их диаметра в мм.
Облачность - указаны через наклонную черту общая и нижняя облачность в баллах и высота нижней границы облаков в метрах; квадратными скобками обозначены формы облаков: Ci - перистые, Cs - перисто-слоистые, Cc - перисто-кучевые, Ac - высококучевые, As - высокослоистые, Sc - слоисто-кучевые, Ns - слоисто-дождевые, Cu - кучевые, Cb - кучево-дождевые. Подробнее классификацию облаков см. в Атласе облаков (PDF).
T - Температура воздуха - температура, измеренная на высоте 2 м над землей.
Td - Температура точки росы - температура, при понижении до которой содержащийся в воздухе водяной пар достигнет насыщения.
f - Относительная влажность воздуха - влажноcть воздуха, измеренная на высоте 2 м над землей.
Te - Эффективная температура - температура, которую ощущает одетый по сезону человек в тени. Характеристика душности погоды. При расчете учитывается влияние влажности воздуха и скорости ветра на теплоощущения человека.
Tes - Эффективная температура на солнце - температура, которую ощущает человек, с поправкой на солнечный нагрев. Характеристика знойности погоды. Зависит от высоты солнца над горизонтом, облачности и скорости ветра. Ночью, в пасмурную погоду, а также при ветре 12 м/с и более поправка равна нулю.
P - Атмосферное давление - приведенное к уровню моря атмосферное давление.
Po - Атмосферное давление - измеренное на уровне метеостанции атмосферное давление.
Tmin - Минимальная температура - минимум температуры воздуха на высоте 2 м над землей.
Tmax - Максимальная температура - максимум температуры воздуха на высоте 2 м над землей.
R - Количество осадков - Количество выпавших осадков за период времени, мм. При наведении курсора мыши на число - период времени, за который выпало указанное количество осадков.
R24 - Количество осадков - Количество выпавших осадков за 24 часа, мм.
S - Снежный покров - Высота снежного покрова, см. При наведении курсора мыши на число - состояние снежного покрова и степень покрытия местности в баллах.